Content
SEND FEEDBACK

Daily
Averages
Monthly
Summary
United Kingdom

LONDON, ENGLAND


Home > Europe > United Kingdom > England
Elevation: 203 feet     Latitude: 51 09N     Longitude: 000 11W

WEATHER
 
SELECT A DAY
Number of Records: 299,385;   Date Range: 7/1/96 - 12/16/14
 
SHARE

PRINT THIS DATA

[ ← Previous Day ]
WEATHER ALMANAC - OCTOBER 4, 2013
[ Next Day → ]
[ °C ]   °F
We're sorry. There is no daily almanac available for London, England on October 4, 2013.
WEATHER BY HOUR - OCTOBER 4, 2013
[ °C ]   °F
Local TimeTemperatureDewpointHumidityBarometerVisibilityWind DirectionWind SpeedGust SpeedPrecipitationEventsConditions
12:50 AM59.0 °F57.2 °F94 %29.74 in6.2 miEast (80°)5.8 mphScattered Clouds
1:20 AM59.0 °F59.0 °F100 %29.74 in5.6 miEast (90°)4.6 mphMostly Cloudy
1:50 AM60.8 °F60.8 °F100 %29.71 in6.2 miEast (90°)4.6 mphMostly Cloudy
2:20 AM62.6 °F62.6 °F100 %29.71 in6.2 miESE (120°)5.8 mphMostly Cloudy
2:50 AM64.4 °F62.6 °F94 %29.71 in6.2 miSSE (150°)5.8 mphMostly Cloudy
3:20 AM64.4 °F62.6 °F94 %29.71 in6.2 miSSE (160°)6.9 mphMostly Cloudy
3:50 AM64.4 °F60.8 °F88 %29.71 in6.2 miSouth (180°)6.9 mphScattered Clouds
4:20 AM64.4 °F60.8 °F88 %29.71 in6.2 miSouth (180°)8.1 mphMostly Cloudy
5:20 AM64.4 °F60.8 °F88 %29.71 in6.2 miSouth (190°)13.8 mphRainLight Rain Showers
5:50 AM62.6 °F60.8 °F94 %29.71 in6.2 miSSW (200°)11.5 mphRainLight Rain Showers
6:20 AM62.6 °F60.8 °F94 %29.71 in5.0 miSSW (210°)10.4 mphRainLight Rain
6:50 AM62.6 °F60.8 °F94 %29.71 in6.2 miSSW (200°)9.2 mphMostly Cloudy
7:20 AM62.6 °F60.8 °F94 %29.71 in6.2 miSSW (200°)10.4 mphMostly Cloudy
7:50 AM62.6 °F60.8 °F94 %29.74 in6.2 miSSW (210°)10.4 mphMostly Cloudy
8:20 AM62.6 °F60.8 °F94 %29.74 in6.2 miSSW (210°)10.4 mphMostly Cloudy
8:50 AM62.6 °F60.8 °F94 %29.77 in6.2 miSSW (200°)9.2 mphMostly Cloudy
9:20 AM62.6 °F60.8 °F94 %29.77 in5.0 miSSW (210°)10.4 mphRainLight Rain
9:50 AM62.6 °F60.8 °F94 %29.77 in6.2 miSSW (210°)11.5 mphMostly Cloudy
10:20 AM62.6 °F60.8 °F94 %29.80 in6.2 miSSW (210°)10.4 mphMostly Cloudy
10:50 AM62.6 °F60.8 °F94 %29.80 in6.2 miSSW (210°)11.5 mphMostly Cloudy
11:20 AM62.6 °F60.8 °F94 %29.83 in6.2 miSSW (210°)12.7 mphRainLight Rain
11:50 AM62.6 °F59.0 °F88 %29.83 in5.6 miSW (220°)15.0 mphMostly Cloudy
12:20 PM62.6 °F59.0 °F88 %29.83 in6.2 miSW (220°)12.7 mphMostly Cloudy
12:50 PM64.4 °F59.0 °F83 %29.83 in6.2 miSW (230°)13.8 mph25.3 mphMostly Cloudy
1:20 PM64.4 °F59.0 °F83 %29.86 in6.2 miSW (230°)16.1 mphMostly Cloudy
1:50 PM64.4 °F59.0 °F83 %29.86 in6.2 miSW (230°)15.0 mphMostly Cloudy
2:20 PM64.4 °F59.0 °F83 %29.86 in6.2 miSW (230°)15.0 mph26.5 mphMostly Cloudy
2:50 PM66.2 °F57.2 °F73 %29.86 in6.2 miSW (230°)16.1 mphScattered Clouds
3:20 PM66.2 °F57.2 °F73 %29.86 in6.2 miSW (230°)12.7 mphPartly Cloudy
3:50 PM66.2 °F57.2 °F73 %29.86 in6.2 miWSW (240°)12.7 mphPartly Cloudy
4:20 PM64.4 °F57.2 °F77 %29.86 in6.2 miSW (230°)11.5 mphPartly Cloudy
4:50 PM64.4 °F55.4 °F73 %29.86 in6.2 miSW (230°)11.5 mphPartly Cloudy
5:20 PM62.6 °F57.2 °F82 %29.89 in6.2 miSSW (210°)8.1 mphPartly Cloudy
5:50 PM62.6 °F57.2 °F82 %29.89 in6.2 miSW (230°)6.9 mphScattered Clouds
6:20 PM60.8 °F57.2 °F88 %29.92 in6.2 miSSW (210°)5.8 mphScattered Clouds
6:50 PM60.8 °F57.2 °F88 %29.92 in6.2 miSSW (200°)4.6 mphScattered Clouds
7:20 PM60.8 °F55.4 °F82 %29.92 in6.2 miVariable3.5 mphPartly Cloudy
7:50 PM59.0 °F55.4 °F88 %29.92 in6.2 miSSW (200°)3.5 mphPartly Cloudy
8:20 PM59.0 °F57.2 °F94 %29.92 inSW (220°)5.8 mphClear
8:50 PM59.0 °F57.2 °F94 %29.95 inSSW (210°)5.8 mphClear
9:20 PM59.0 °F57.2 °F94 %29.95 in6.2 miSSW (210°)4.6 mphPartly Cloudy
9:50 PM59.0 °F57.2 °F94 %29.95 in6.2 miVariable2.3 mphPartly Cloudy
10:20 PM57.2 °F57.2 °F100 %29.95 inVariable3.5 mphClear
10:50 PM57.2 °F55.4 °F94 %29.95 in6.2 miSW (220°)2.3 mphPartly Cloudy
11:20 PM57.2 °F55.4 °F94 %29.95 in5.6 miSSW (210°)3.5 mphScattered Clouds
11:50 PM59.0 °F57.2 °F94 %29.95 in6.2 miVariable2.3 mphMostly Cloudy
Hourly data recorded from EGKK, located miles away from London, England







STORIES FROM OUR PARTNERS